Weather History for KP53 - March, 2013

Change the Weather History Date:

Wednesday, March 6, 2013

  Actual Average (KISQ) Record (KISQ)
Temperature  
Mean Temperature 27 °F -  
Max Temperature 30 °F 32 °F 50 °F (1951)
Min Temperature 24 °F 13 °F -27 °F (1972)
Degree Days  
Heating Degree Days 38    
Moisture  
Dew Point 22 °F    
Average Humidity 79    
Maximum Humidity 88    
Minimum Humidity 69    
Precipitation  
Precipitation 0.08 in - - ()
Sea Level Pressure  
Sea Level Pressure 30.25 in    
Wind  
Wind Speed 8 mph (NNW)    
Max Wind Speed 16 mph    
Max Gust Speed 21 mph    
Averages and records for this station are not official NWS values.
T = Trace of Precipitation, MM = Missing Value Source: NWS Daily Summary

Daily Weather History Graph

Daily Weather History Graph

Search for Another Location

Airport or City:

Trip Planner

Search our weather history database for the weather conditions in past years. The results will help you decide how hot, cold, wet, or windy it might be!

Date:

Astronomy

Mar. 06, 2013 Rise Set
Actual Time 7:16 AM EST 6:40 PM EST
Civil Twilight 6:46 AM EST 7:10 PM EST
Nautical Twilight 6:11 AM EST 7:45 PM EST
Astronomical Twilight 5:36 AM EST 8:20 PM EST
Moon 3:39 AM EST (3/6) 1:07 PM EST (3/6)
Length of Visible Light 12h 24m
Length of Day
11h 24m
Waning Crescent, 30% of the Moon is Illuminated
Mar 6
Waning Crescent
Mar 11
New
Mar 19
First Quarter
Mar 27
Full
Apr 3
Last Quarter

Hourly Weather History & Observations

Time (EST) Temp. Windchill Dew Point Humidity Pressure Visibility Wind Dir Wind Speed Gust Speed Precip Events Conditions
12:56 AM 30.0 °F 23.2 °F 25.0 °F 82% 30.15 in - North 6.9 mph - N/A   Unknown
1:56 AM 30.0 °F 24.1 °F 24.1 °F 79% 30.16 in - North 5.8 mph - N/A   Unknown
2:56 AM 30.0 °F 26.5 °F 24.1 °F 79% 30.17 in - North 3.5 mph - N/A   Unknown
3:56 AM 30.0 °F - 24.1 °F 79% 30.19 in - Calm Calm - N/A   Unknown
4:56 AM 30.0 °F 26.5 °F 25.0 °F 82% 30.20 in - NNW 3.5 mph - N/A   Unknown
5:56 AM 28.9 °F 21.9 °F 25.0 °F 85% 30.22 in - NW 6.9 mph - N/A   Unknown
6:56 AM 28.0 °F 22.8 °F 25.0 °F 88% 30.22 in - NNW 4.6 mph - N/A   Unknown
7:56 AM 28.9 °F 21.9 °F 25.0 °F 85% 30.23 in - NNW 6.9 mph - N/A   Unknown
8:56 AM 30.0 °F 23.2 °F 26.1 °F 85% 30.25 in - NNW 6.9 mph - N/A   Unknown
9:56 AM 30.9 °F 23.5 °F 26.1 °F 82% 30.25 in - NNE 8.1 mph - N/A   Unknown
10:56 AM 30.9 °F 23.5 °F 25.0 °F 79% 30.26 in - NNW 8.1 mph - N/A   Unknown
11:56 AM 30.9 °F 21.7 °F 26.1 °F 82% 30.27 in - NNW 11.5 mph - 0.01 in   Unknown
12:56 PM 28.0 °F 16.1 °F 23.0 °F 81% 30.27 in - NNW 16.1 mph - 0.04 in   Unknown
1:56 PM 28.9 °F 19.8 °F 24.1 °F 82% 30.27 in - North 10.4 mph - 0.01 in   Unknown
2:56 PM 28.0 °F 16.1 °F 23.0 °F 81% 30.27 in - NNW 16.1 mph - N/A   Unknown
3:56 PM 28.0 °F 19.3 °F 23.0 °F 81% 30.27 in - NNW 9.2 mph 20.7 mph 0.01 in   Unknown
4:56 PM 28.0 °F 17.5 °F 21.0 °F 75% 30.28 in - NNW 12.7 mph - 0.01 in   Unknown
5:56 PM 27.0 °F 18.0 °F 21.0 °F 78% 30.29 in - North 9.2 mph - N/A   Unknown
6:56 PM 26.1 °F 15.6 °F 19.0 °F 75% 30.30 in - North 11.5 mph - N/A   Unknown
7:56 PM 25.0 °F 13.6 °F 18.0 °F 75% 30.32 in - NNW 12.7 mph 20.7 mph N/A   Unknown
8:56 PM 25.0 °F 14.8 °F 16.0 °F 69% 30.32 in - North 10.4 mph - N/A   Unknown
9:56 PM 25.0 °F 14.2 °F 16.0 °F 69% 30.32 in - North 11.5 mph - N/A   Unknown
10:56 PM 24.1 °F 13.1 °F 16.0 °F 71% 30.32 in - North 11.5 mph - N/A   Unknown
11:56 PM 24.1 °F 15.2 °F 15.1 °F 69% 30.32 in - NNW 8.1 mph - N/A   Unknown